sat.trackr.live / text

‹ back to catalog

LINUSS1

NORAD 55246 · 2022-144G

PAYLOAD ACTIVE UNKNOWN

§ Identity

Operator
Country
US
Launch date
2022-11-01
Launch site
AFETR
Launch vehicle
Mass (kg)
RCS (m²)

External: N2YO · Heavens-Above · Gunter

§ Orbital elements

Epoch: 2026-05-25T00:14:08.169792Z

Period
1,453.70 min
Inclination
5.3268°
Eccentricity
0.0011362
Mean motion
0.99057257 rev/d
Perigee alt
36,082.2 km
Apogee alt
36,178.8 km
Semi-major
42,508.7 km
B*
0.0000e+0
RAAN
64.3557°
Arg perigee
305.9783°
Mean anomaly
217.8992°
Rev number
1,143

§ Raw data

LINUSS11 55246U 22144G   26145.00981678 -.00000234  00000+0  00000+0 0  99902 55246   5.3268  64.3557 0011362 305.9783 217.8992  0.99057257 11437

JSON: /api/v1/satellites/55246 · /tle

For live sub-satellite position, see the globe view (requires WebGL).

§ Visibility from observer

Set your observer location to see the next 7 days of passes ≥ 10°. The values pass through the URL so the page stays shareable.

No JS? Fill the form by hand. The geolocation button needs JavaScript.